Location: Cactus School
(34.5700°N, 118.0931°W)
Time: 14:01:09
(UTC-08:00)

Tiros 1 - Pass Details

Date: 24 November 2019
Orbit: 630 x 664 km, 48.4° (Epoch: 04 December)

Event Time Altitude Azimuth Distance (km) Brightness Sun altitude
Rises 12:27:42 0° 259° (WSW) 2,916 10.8 33.6°
Reaches altitude 10° 12:30:13 10° 269° (W) 2,007 10.0 33.5°
Maximum altitude 12:34:22 32° 333° (NNW) 1,079 8.2 33.3°
Drops below altitude 10° 12:38:31 10° 37° (NE) 2,008 9.3 33.0°
Sets 12:41:03 0° 48° (NE) 2,918 10.1 32.9°
